"2016-07-02 00:00:00",1772569,0.458,160.6,24.12,0.431,21.71,108.6957,21.54,22.5,45.3,0,111.2,13.03,22.37,122.6
"2016-07-02 00:00:30",1772570,0.75,122.8,23.05,0.357,21.77,108.6957,21.54,22.5,45.32,0,111.2,13.03,22.37,84.8
"2016-07-02 00:01:00",1772571,0.853,105,6.626,0.175,21.75,108.7083,21.58,22.54,45.45,0,111.2,13.03,22.40,67.0
"2016-07-02 00:01:30",1772572,0.86,96.4,9.16,0.14,21.89,108.7291,21.63,22.54,45.07,0,111.2,13.04,22.46,58.4
"2016-07-02 00:02:00",1772573,0.329,77.96,25.76,0.228,21.85,108.7294,21.63,22.56,44.75,0,111.2,13.04,22.46,40.0
"2016-07-02 00:02:30",1772574,0.68,30.64,8.75,0.197,21.83,108.735,21.65,22.6,44.46,0,111.2,13.04,22.47,352.6
"2016-07-02 00:03:00",1772575,1.197,60.67,3.932,0.158,21.86,108.7577,21.7,22.62,42.73,0,111.2,13.04,22.53,22.7
"2016-07-02 00:03:30",1772576,1.393,54.18,6.268,0.139,21.94,108.7631,21.72,22.64,41.85,0,111.2,13.04,22.55,16.2
"2016-07-02 00:04:00",1772577,1.193,46.08,7.761,0.132,22.14,108.7636,21.72,22.67,43.43,0,111.2,13.04,22.55,8.1
"2016-07-02 00:04:30",1772578,1.254,51.68,5.171,0.141,22.13,108.7824,21.77,22.69,44.77,0,111.2,13.04,22.60,13.7
"2016-07-02 00:05:00",1772579,1.327,46.36,3.351,0.27,22.21,108.7928,21.79,22.71,44.57,0,111.2,13.04,22.62,8.4
"2016-07-02 00:05:30",1772580,1.563,42.58,3.962,0.139,22.27,108.7968,21.8,22.74,43.83,0,111.2,13.04,22.63,4.6
"2016-07-02 00:06:00",1772581,1.626,49.01,4.049,0.184,22.29,108.7968,21.8,22.75,44.63,0,111.2,13.04,22.63,11.0
"2016-07-02 00:06:30",1772582,1.487,44.24,5.825,0.175,22.34,108.7968,21.8,22.79,45.64,0,111.2,13.04,22.63,6.2
"2016-07-02 00:07:00",1772583,1.924,36.46,1.518,0.096,22.38,108.7982,21.81,22.8,44.72,0,111.2,13.04,22.64,358.5
"2016-07-02 00:07:30",1772584,1.956,43.94,3.456,0.064,22.44,108.8049,21.83,22.81,45.13,0,111.2,13.04,22.65,5.9
"2016-07-02 00:08:00",1772585,2.025,42.65,2.581,0.197,22.44,108.8097,21.84,22.83,45.37,0,111.2,13.04,22.67,4.7
"2016-07-02 00:08:30",1772586,2.042,37.91,2.572,0.18,22.47,108.8159,21.85,22.84,44.79,0,111.2,13.03,22.68,359.9
"2016-07-02 00:09:00",1772587,2.1,38.84,5.654,0.192,22.51,108.8175,21.86,22.85,44.85,0,111.2,13.03,22.69,0.8
"2016-07-02 00:09:30",1772588,2.214,40.58,1.285,0.147,22.56,108.8234,21.87,22.86,44.87,0,111.2,13.04,22.70,2.6
"2016-07-02 00:10:00",1772589,2.292,38.6,3.328,0.484,22.6,108.8223,21.87,22.86,44.91,0,111.2,13.04,22.70,0.6
"2016-07-02 00:10:30",1772590,3.089,40.28,2.9,0.265,22.51,108.8156,21.85,22.88,45.69,0,111.2,13.04,22.68,2.3
"2016-07-02 00:11:00",1772591,3.442,37.27,3.186,0.364,22.62,108.8087,21.83,22.87,46.01,0,111.2,13.04,22.66,359.3
"2016-07-02 00:11:30",1772592,4.028,29.9,3.538,0.347,22.84,108.7983,21.81,22.87,45.83,0,111.2,13.04,22.64,351.9
"2016-07-02 00:12:00",1772593,7.416,39.87,6.234,2.187,21.05,108.7705,21.74,22.83,50.27,0,111.2,13.04,22.56,1.9
"2016-07-02 00:12:30",1772594,10.88,46.02,1.949,0.767,20.54,108.7347,21.65,22.79,55.04,0,111.2,13.03,22.47,8.0
"2016-07-02 00:13:00",1772595,10.87,44.22,1.01,0.436,20.64,108.6847,21.52,22.75,55.68,0,111.2,13.03,22.34,6.2
"2016-07-02 00:13:30",1772596,10.73,47.6,1.711,0.386,20.64,108.615,21.34,22.68,55.99,0,111.2,13.03,22.16,9.6
"2016-07-02 00:14:00",1772597,10.08,52.62,1.344,0.257,20.68,108.5342,21.13,22.57,56.3,0,111.2,13.03,21.96,14.6
"2016-07-02 00:14:30",1772598,10,50.6,1.421,0.258,20.7,108.4474,20.91,22.44,56.64,0,111.2,13.03,21.73,12.6
"2016-07-02 00:15:00",1772599,11.14,47.78,2.634,0.525,20.81,108.3502,20.66,22.28,57.23,0,111.2,13.03,21.48,9.8
"2016-07-02 00:15:30",1772600,10.37,46.03,2.988,0.573,21.08,108.2454,20.39,22.09,57.79,0,111.2,13.03,21.21,8.0
"2016-07-02 00:16:00",1772601,10.46,44.66,2.203,0.271,21.66,108.1428,20.13,21.9,58.44,0,111.2,13.03,20.95,6.7
"2016-07-02 00:16:30",1772602,9.28,43.19,4.26,1.175,21.7,108.0524,19.89,21.68,59.07,0,111.1,13.03,20.72,5.2
"2016-07-02 00:17:00",1772603,8.49,38.96,1.966,0.83,22.66,107.9771,19.7,21.48,59.62,0,111.1,13.03,20.52,1.0
"2016-07-02 00:17:30",1772604,8.98,39.92,2.268,0.818,22.16,107.9127,19.54,21.32,60.53,0,111.1,13.04,20.36,1.9
"2016-07-02 00:18:00",1772605,11.27,43.6,1.733,0.513,20.98,107.8551,19.39,21.14,61.01,0,111.1,13.04,20.21,5.6
"2016-07-02 00:18:30",1772606,11.75,44.52,2.217,0.335,20.64,107.7899,19.22,20.99,61.4,0,111.1,13.04,20.04,6.5
"2016-07-02 00:19:00",1772607,12.26,46.69,1.62,0.349,20.45,107.7191,19.04,20.82,61.74,0,111.1,13.04,19.86,8.7
"2016-07-02 00:19:30",1772608,11.83,44.04,1.18,0.214,21.02,107.6498,18.86,20.65,62.66,0,111.1,13.05,19.68,6.0
"2016-07-02 00:20:00",1772609,11.88,47.2,0.949,0.171,20.66,107.5852,18.7,20.47,63.2,0,111.1,13.05,19.51,9.2
"2016-07-02 00:20:30",1772610,11.83,46.62,1.385,0.222,20.89,107.5244,18.54,20.31,63.86,0,111.1,13.05,19.36,8.6
"2016-07-02 00:21:00",1772611,12.16,46.23,1.507,0.13,20.67,107.4757,18.41,20.14,64.46,0,111.1,13.05,19.23,8.2
"2016-07-02 00:21:30",1772612,12.52,48.79,1.131,0.305,20.54,107.4279,18.29,20,64.95,0,111.1,13.05,19.11,10.8
"2016-07-02 00:22:00",1772613,12.39,48.05,1.308,0.457,20.55,107.3774,18.16,19.84,65.79,0,111.1,13.05,18.98,10.0
"2016-07-02 00:22:30",1772614,11.84,50.04,2.518,0.211,20.69,107.3288,18.04,19.7,66.41,0,111.1,13.05,18.85,12.0
"2016-07-02 00:23:00",1772615,11.49,51.47,2.38,0.334,20.63,107.2813,17.92,19.56,66.86,0,111,13.05,18.73,13.5
"2016-07-02 00:23:30",1772616,11.48,49.04,1.236,0.143,20.63,107.2406,17.81,19.41,67.82,0,111,13.06,18.63,11.0
"2016-07-02 00:24:00",1772617,11.89,49.97,0.913,0.358,20.56,107.2001,17.71,19.29,68.54,0,111,13.06,18.52,12.0
"2016-07-02 00:24:30",1772618,11.95,48.42,1.182,0.179,20.57,107.1675,17.62,19.18,69.69,0,111,13.06,18.44,10.4
"2016-07-02 00:25:00",1772619,11.45,47.59,0.863,0.155,20.64,107.1349,17.54,19.07,70.51,0,111,13.06,18.35,9.6
"2016-07-02 00:25:30",1772620,11.23,49.58,1.051,0.161,20.64,107.1102,17.48,18.97,71.1,0,111,13.06,18.29,11.6
"2016-07-02 00:26:00",1772621,11.11,49.72,0.611,0.178,20.69,107.0826,17.41,18.88,71.6,0,111,13.07,18.22,11.7
"2016-07-02 00:26:30",1772622,11,51.74,0.753,0.121,20.67,107.0596,17.35,18.81,72.09,0,111,13.07,18.16,13.7
"2016-07-02 00:27:00",1772623,11,51.6,0.716,0.064,20.56,107.0471,17.32,18.73,72.45,0,111,13.07,18.13,13.6
"2016-07-02 00:27:30",1772624,11.24,50.09,1.238,0.235,20.58,107.0294,17.27,18.64,72.66,0,111,13.07,18.08,12.1
"2016-07-02 00:28:00",1772625,11.53,50.24,1.378,0.174,20.51,107.0235,17.26,18.57,72.7,0,111,13.07,18.07,12.2
"2016-07-02 00:28:30",1772626,12.1,51.74,1.117,0.268,20.35,107.0079,17.22,18.52,72.66,0,111,13.07,18.03,13.7
"2016-07-02 00:29:00",1772627,12.22,51.35,1.228,0.159,20.35,106.9913,17.17,18.45,72.3,0,110.9,13.07,17.98,13.3
"2016-07-02 00:29:30",1772628,12.3,52.95,1.935,0.296,20.3,106.9765,17.13,18.39,72.68,0,111,13.07,17.95,15.0
"2016-07-02 00:30:00",1772629,12.12,55.92,1.377,0.187,20.17,106.9503,17.07,18.32,72.24,0,111,13.07,17.88,17.9
"2016-07-02 00:30:30",1772630,11.58,56.15,2.078,0.235,20.17,106.9287,17.01,18.26,72.02,0,110.9,13.07,17.82,18.2
"2016-07-02 00:31:00",1772631,11.2,61.6,1.079,0.149,20.21,106.9141,16.97,18.19,72.05,0,110.9,13.07,17.79,23.6
"2016-07-02 00:31:30",1772632,11.4,63.22,1.379,0.103,20.09,106.886,16.9,18.15,72.11,0,110.9,13.06,17.71,25.2
"2016-07-02 00:32:00",1772633,11.11,66.26,0.795,0.215,19.95,106.8739,16.87,18.1,71.89,0,110.9,13.07,17.68,28.3
"2016-07-02 00:32:30",1772634,11.3,67.97,1.338,0.169,20.08,106.8491,16.81,18.05,71.86,0,110.9,13.07,17.62,30.0
"2016-07-02 00:33:00",1772635,11.59,68.79,0.706,0.169,19.79,106.8258,16.75,18.02,71.81,0,110.9,13.07,17.56,30.8
"2016-07-02 00:33:30",1772636,11.65,69.94,1.175,0.211,19.93,106.8044,16.69,17.95,71.92,0,110.9,13.07,17.50,31.9
"2016-07-02 00:34:00",1772637,11.25,71.36,1.165,0.364,20.52,106.7856,16.65,17.9,72.33,0,110.9,13.07,17.46,33.4
"2016-07-02 00:34:30",1772638,11.28,70.13,1.82,0.364,20.03,106.7653,16.59,17.86,72.56,0,110.9,13.07,17.40,32.1
"2016-07-02 00:35:00",1772639,10.9,71.53,0.782,0.209,20.96,106.7602,16.58,17.81,73.03,0,110.9,13.07,17.39,33.5
"2016-07-02 00:35:30",1772640,11.16,72.46,1.002,0.148,20.93,106.7591,16.58,17.77,73.7,0,110.9,13.07,17.39,34.5
"2016-07-02 00:36:00",1772641,11.05,72.63,1.46,0.253,20.26,106.7615,16.58,17.75,73.91,0,110.9,13.08,17.39,34.6
"2016-07-02 00:36:30",1772642,11.26,70.99,1.319,0.18,20.34,106.7495,16.55,17.72,73.79,0,110.9,13.08,17.36,33.0
"2016-07-02 00:37:00",1772643,11.96,68.2,2.522,0.388,19.83,106.7499,16.55,17.68,73.69,0,110.9,13.08,17.36,30.2
"2016-07-02 00:37:30",1772644,12.51,66.1,2.143,0.333,19.71,106.746,16.54,17.66,72.77,0,110.9,13.08,17.35,28.1
"2016-07-02 00:38:00",1772645,12.86,67.69,1.658,0.583,20.04,106.7218,16.48,17.63,72.43,0,110.9,13.08,17.29,29.7
"2016-07-02 00:38:30",1772646,13.03,68.28,1.508,0.571,20.17,106.7162,16.47,17.6,72.41,0,110.9,13.08,17.28,30.3
"2016-07-02 00:39:00",1772647,13,67.91,0.971,0.489,20.5,106.7162,16.47,17.58,72.59,0,110.9,13.08,17.28,29.9
"2016-07-02 00:39:30",1772648,12.81,66.38,2.755,0.598,20.18,106.7044,16.44,17.55,72.89,0,110.9,13.09,17.25,28.4
"2016-07-02 00:40:00",1772649,13.09,62.25,1.234,0.359,20.18,106.6892,16.4,17.53,73.51,0,110.9,13.09,17.21,24.2
"2016-07-02 00:40:30",1772650,12.92,63.27,2.439,0.274,20.21,106.6835,16.38,17.52,74.11,0,110.9,13.09,17.19,25.3
"2016-07-02 00:41:00",1772651,12.39,60.68,1.313,0.242,20.13,106.6824,16.38,17.5,74.73,0,110.9,13.09,17.19,22.7
"2016-07-02 00:41:30",1772652,11.98,60.27,1.077,0.363,20.17,106.6827,16.38,17.5,75.36,0,110.9,13.09,17.19,22.3
"2016-07-02 00:42:00",1772653,11.91,59.29,0.763,0.25,20.19,106.6851,16.39,17.5,75.68,0,110.8,13.09,17.20,21.3
"2016-07-02 00:42:30",1772654,11.77,63.99,3.252,0.252,20.45,106.6902,16.4,17.46,75.86,0,110.8,13.09,17.21,26.0
"2016-07-02 00:43:00",1772655,11.99,65.8,1.381,0.613,20.62,106.6953,16.41,17.44,75.24,0,110.8,13.09,17.22,27.8
"2016-07-02 00:43:30",1772656,12.29,64.33,2.547,0.402,20.44,106.7034,16.44,17.45,75.02,0,110.8,13.09,17.24,26.3
"2016-07-02 00:44:00",1772657,12.13,64.24,2.045,0.383,20.52,106.7118,16.46,17.45,75.13,0,110.8,13.09,17.27,26.2
"2016-07-02 00:44:30",1772658,12.13,62.3,1.156,0.216,20.56,106.7163,16.47,17.43,75.03,0,110.8,13.09,17.28,24.3
"2016-07-02 00:45:00",1772659,12.04,63.43,0.978,0.255,20.49,106.719,16.47,17.44,75.04,0,110.8,13.09,17.28,25.4
"2016-07-02 00:45:30",1772660,11.83,65.8,1.396,0.283,20.44,106.7336,16.51,17.45,74.89,0,110.8,13.09,17.32,27.8
"2016-07-02 00:46:00",1772661,11.19,64.99,2.984,0.449,20.25,106.7522,16.56,17.46,75.06,0,110.8,13.09,17.37,27.0
"2016-07-02 00:46:30",1772662,10.98,60.61,1.444,0.243,20.3,106.7522,16.56,17.47,75.26,0,110.8,13.09,17.37,22.6
"2016-07-02 00:47:00",1772663,10.99,64.5,1.121,0.237,20.59,106.7522,16.56,17.48,75.2,0,110.8,13.09,17.37,26.5
"2016-07-02 00:47:30",1772664,10.88,63.79,1.065,0.247,20.46,106.7522,16.56,17.53,75.1,0,110.8,13.09,17.37,25.8
"2016-07-02 00:48:00",1772665,12.05,66.84,2.481,0.282,20.66,106.7544,16.57,17.52,74.94,0,110.8,13.09,17.38,28.8
"2016-07-02 00:48:30",1772666,11.64,67.26,0.76,0.153,20.7,106.7634,16.59,17.51,74.34,0,110.8,13.09,17.40,29.3
"2016-07-02 00:49:00",1772667,11.39,66.42,1.033,0.223,20.68,106.78,16.63,17.53,74.08,0,110.8,13.09,17.44,28.4
"2016-07-02 00:49:30",1772668,10.79,69.13,1.045,0.221,20.72,106.786,16.65,17.54,73.59,0,110.8,13.09,17.46,31.1
"2016-07-02 00:50:00",1772669,10.97,69.84,1.482,0.161,20.83,106.786,16.65,17.57,73.28,0,110.8,13.09,17.46,31.8
"2016-07-02 00:50:30",1772670,11.27,68.65,0.769,0.201,20.76,106.7978,16.68,17.57,73.19,0,110.8,13.09,17.49,30.7
"2016-07-02 00:51:00",1772671,11,69.25,0.678,0.184,20.62,106.8177,16.73,17.6,73.28,0,110.8,13.09,17.54,31.2
"2016-07-02 00:51:30",1772672,10.68,68.42,0.658,0.136,20.24,106.82,16.73,17.63,73.55,0,110.8,13.09,17.54,30.4
"2016-07-02 00:52:00",1772673,10.24,70.59,1.456,0.233,19.75,106.8279,16.75,17.64,73.86,0,110.8,13.09,17.56,32.6
"2016-07-02 00:52:30",1772674,10.34,72.15,1.047,0.144,20.38,106.8403,16.79,17.68,73.83,0,110.8,13.09,17.60,34.2
"2016-07-02 00:53:00",1772675,10.05,72.63,0.728,0.137,20.44,106.845,16.8,17.69,73.62,0,110.8,13.1,17.61,34.6
"2016-07-02 00:53:30",1772676,10.4,71.69,1.141,0.207,20.63,106.8547,16.82,17.71,73.29,0,110.8,13.1,17.63,33.7
"2016-07-02 00:54:00",1772677,10.75,71.58,0.733,0.151,20.67,106.8619,16.84,17.73,73.23,0,110.8,13.1,17.65,33.6
"2016-07-02 00:54:30",1772678,10.59,72.22,0.834,0.117,20.72,106.8658,16.85,17.75,73.26,0,110.8,13.1,17.66,34.2
"2016-07-02 00:55:00",1772679,10.4,73.5,0.926,0.176,20.85,106.8685,16.86,17.76,72.93,0,110.8,13.1,17.67,35.5
"2016-07-02 00:55:30",1772680,10.28,75.44,0.812,0.087,21.03,106.8761,16.88,17.78,72.48,0,110.8,13.1,17.69,37.4
"2016-07-02 00:56:00",1772681,10.44,73.88,1.09,0.116,21,106.9033,16.95,17.79,72.19,0,110.8,13.1,17.76,35.9
"2016-07-02 00:56:30",1772682,10.55,73.74,0.542,0.139,21.12,106.9065,16.96,17.82,72.15,0,110.8,13.1,17.77,35.7
"2016-07-02 00:57:00",1772683,10.29,73.79,0.381,0.108,20.98,106.9213,16.99,17.85,72.13,0,110.8,13.1,17.80,35.8
"2016-07-02 00:57:30",1772684,10.18,75.46,0.588,0.085,21.08,106.9439,17.05,17.88,72.14,0,110.8,13.1,17.86,37.5
"2016-07-02 00:58:00",1772685,9.82,75.13,0.977,0.145,20.92,106.9508,17.07,17.9,72.21,0,110.8,13.1,17.88,37.1
"2016-07-02 00:58:30",1772686,9.28,76.02,0.88,0.261,21.23,106.9667,17.11,17.93,72.25,0,110.8,13.1,17.92,38.0
"2016-07-02 00:59:00",1772687,8.84,76.68,0.544,0.148,21.29,106.9876,17.16,17.95,72.41,0,110.8,13.1,17.98,38.7
"2016-07-02 00:59:30",1772688,8.82,78.16,0.88,0.13,21.26,106.9945,17.18,17.99,72.43,0,110.8,13.11,17.99,40.2
"2016-07-02 01:00:00",1772689,9.23,77.11,0.815,0.1,21.07,107.0218,17.25,18.02,72.33,0,110.8,13.11,18.06,39.1
"2016-07-02 01:00:30",1772690,8.93,78.58,0.755,0.3,20.66,107.0247,17.26,18.06,72.15,0,110.8,13.11,18.07,40.6
"2016-07-02 01:01:00",1772691,8.67,78.24,1.082,0.124,20.74,107.0337,17.28,18.1,71.95,0,110.8,13.11,18.09,40.2
"2016-07-02 01:01:30",1772692,8.38,76.34,1.513,0.141,20.9,107.0514,17.33,18.11,71.81,0,110.8,13.11,18.14,38.3
"2016-07-02 01:02:00",1772693,8.16,75.23,1.048,0.163,21.13,107.0584,17.34,18.15,71.8,0,110.8,13.11,18.16,37.2
"2016-07-02 01:02:30",1772694,8.03,78.61,0.796,0.114,21.47,107.0584,17.34,18.18,71.92,0,110.8,13.11,18.16,40.6
"2016-07-02 01:03:00",1772695,7.901,76.54,0.672,0.109,21.22,107.0584,17.34,18.2,72.09,0,110.8,13.11,18.16,38.5
"2016-07-02 01:03:30",1772696,7.997,78.78,1.211,0.103,21.16,107.0719,17.38,18.22,71.88,0,110.8,13.11,18.19,40.8
"2016-07-02 01:04:00",1772697,8.15,79.75,0.706,0.145,21.23,107.088,17.42,18.25,71.67,0,110.8,13.11,18.23,41.8
"2016-07-02 01:04:30",1772698,8.21,79.19,0.78,0.136,21.21,107.0922,17.43,18.27,71.49,0,110.8,13.1,18.24,41.2
"2016-07-02 01:05:00",1772699,8.38,78.36,0.81,0.121,21,107.0922,17.43,18.3,71.3,0,110.8,13.1,18.24,40.4
"2016-07-02 01:05:30",1772700,7.782,78.9,0.745,0.29,21.23,107.0922,17.43,18.3,71.26,0,110.8,13.1,18.24,40.9
"2016-07-02 01:06:00",1772701,7.377,77.95,1.454,0.171,21.57,107.0922,17.43,18.34,71.33,0,110.8,13.1,18.24,39.9
"2016-07-02 01:06:30",1772702,7.565,78.13,1.219,0.319,21.46,107.0961,17.44,18.35,71.3,0,110.8,13.1,18.25,40.1
"2016-07-02 01:07:00",1772703,7.107,73.25,1.545,0.128,21.72,107.1127,17.48,18.37,71.11,0,110.8,13.1,18.30,35.2
"2016-07-02 01:07:30",1772704,7.049,73.06,0.909,0.168,21.74,107.1187,17.5,18.39,70.92,0,110.8,13.1,18.31,35.1
"2016-07-02 01:08:00",1772705,7.523,74.72,0.668,0.151,21.58,107.1251,17.52,18.4,70.81,0,110.8,13.1,18.33,36.7
"2016-07-02 01:08:30",1772706,7.435,73.96,1.201,0.233,21.54,107.126,17.52,18.42,70.77,0,110.8,13.1,18.33,36.0
"2016-07-02 01:09:00",1772707,7.335,73.69,0.919,0.15,21.63,107.126,17.52,18.43,70.6,0,110.8,13.1,18.33,35.7
"2016-07-02 01:09:30",1772708,7.472,72.38,1.746,0.121,21.74,107.1361,17.54,18.45,70.27,0,110.8,13.1,18.36,34.4
"2016-07-02 01:10:00",1772709,7.172,74.82,0.7,0.143,21.61,107.1572,17.6,18.48,70.1,0,110.8,13.1,18.41,36.8
"2016-07-02 01:10:30",1772710,6.863,76.58,0.902,0.192,21.43,107.1597,17.6,18.51,70.05,0,110.8,13.11,18.42,38.6
"2016-07-02 01:11:00",1772711,6.703,79.22,1.42,0.099,21.3,107.16,17.61,18.53,70.03,0,110.8,13.11,18.42,41.2
"2016-07-02 01:11:30",1772712,6.818,80.6,0.973,0.084,21.21,107.1707,17.63,18.56,70.03,0,110.8,13.11,18.45,42.6
"2016-07-02 01:12:00",1772713,6.852,80.6,0.719,0.111,21.01,107.1932,17.69,18.57,70.01,0,110.8,13.11,18.50,42.6
"2016-07-02 01:12:30",1772714,6.841,79.8,0.488,0.097,20.99,107.1935,17.69,18.6,69.72,0,110.8,13.11,18.51,41.8
"2016-07-02 01:13:00",1772715,6.834,80.4,1.071,0.096,21.17,107.1935,17.69,18.62,69.46,0,110.8,13.11,18.51,42.4
"2016-07-02 01:13:30",1772716,6.702,82.2,0.766,0.185,21.33,107.2045,17.72,18.64,69.39,0,110.8,13.11,18.53,44.2
"2016-07-02 01:14:00",1772717,6.831,84.1,0.549,0.099,21.3,107.2205,17.76,18.66,69.26,0,110.8,13.11,18.57,46.1
"2016-07-02 01:14:30",1772718,6.593,83.8,0.315,0.059,21.27,107.2273,17.78,18.67,69.02,0,110.8,13.11,18.59,45.8
"2016-07-02 01:15:00",1772719,6.6,82.2,0.588,0.071,21.28,107.2273,17.78,18.69,68.88,0,110.8,13.11,18.59,44.2
"2016-07-02 01:15:30",1772720,6.467,82.3,0.49,0.056,21.33,107.2273,17.78,18.71,68.71,0,110.8,13.11,18.59,44.3
"2016-07-02 01:16:00",1772721,6.334,83,0.95,0.075,21.4,107.2273,17.78,18.72,68.58,0,110.8,13.11,18.59,45.0
"2016-07-02 01:16:30",1772722,6.474,84.5,0.657,0.077,21.31,107.2273,17.78,18.73,68.46,0,110.8,13.11,18.59,46.5
"2016-07-02 01:17:00",1772723,6.16,83.1,0.753,0.108,21.4,107.2273,17.78,18.76,68.37,0,110.8,13.11,18.59,45.1
"2016-07-02 01:17:30",1772724,6.557,87.5,1.622,0.136,21.29,107.2282,17.78,18.75,68.31,0,110.8,13.11,18.59,49.5
"2016-07-02 01:18:00",1772725,6.219,90.5,1.454,0.139,21.39,107.2282,17.78,18.76,68.21,0,110.8,13.11,18.59,52.5
"2016-07-02 01:18:30",1772726,6.248,90.8,0.878,0.178,21.42,107.2291,17.78,18.78,68.17,0,110.8,13.11,18.60,52.8
"2016-07-02 01:19:00",1772727,5.941,94.5,1.225,0.077,21.54,107.2303,17.79,18.77,68.17,0,110.8,13.11,18.60,56.5
"2016-07-02 01:19:30",1772728,5.895,93.3,0.821,0.04,21.45,107.2309,17.79,18.79,68.15,0,110.8,13.11,18.60,55.3
"2016-07-02 01:20:00",1772729,5.926,92.9,0.989,0.093,21.51,107.2327,17.79,18.8,68.05,0,110.8,13.11,18.61,54.9
"2016-07-02 01:20:30",1772730,5.959,93.1,0.765,0.17,21.51,107.2342,17.8,18.79,68,0,110.8,13.11,18.61,55.1
"2016-07-02 01:21:00",1772731,6.296,92,0.733,0.108,21.42,107.2336,17.79,18.81,67.9,0,110.8,13.11,18.61,54.0
"2016-07-02 01:21:30",1772732,6.358,90.6,0.437,0.073,21.44,107.2373,17.8,18.79,67.71,0,110.8,13.11,18.62,52.6
"2016-07-02 01:22:00",1772733,6.301,91,0.619,0.054,21.54,107.2384,17.81,18.8,67.48,0,110.8,13.11,18.62,53.0
"2016-07-02 01:22:30",1772734,6.031,91.8,0.863,0.12,21.55,107.24,17.81,18.8,67.36,0,110.8,13.11,18.62,53.8
"2016-07-02 01:23:00",1772735,6.057,91.6,1.11,0.119,21.53,107.2412,17.81,18.8,67.23,0,110.8,13.1,18.63,53.6
"2016-07-02 01:23:30",1772736,6.069,90.7,0.67,0.101,21.58,107.2424,17.82,18.81,67.11,0,110.8,13.1,18.63,52.7
"2016-07-02 01:24:00",1772737,6.026,92.5,1.264,0.176,21.62,107.243,17.82,18.8,66.92,0,110.8,13.1,18.63,54.5
"2016-07-02 01:24:30",1772738,5.702,92.8,0.762,0.177,21.64,107.2454,17.82,18.8,66.96,0,110.8,13.1,18.64,54.8
"2016-07-02 01:25:00",1772739,5.637,92.1,0.84,0.136,21.67,107.2478,17.83,18.81,67.02,0,110.8,13.1,18.64,54.1
"2016-07-02 01:25:30",1772740,5.708,91.8,0.844,0.065,21.64,107.2499,17.84,18.82,66.93,0,110.8,13.1,18.65,53.8
"2016-07-02 01:26:00",1772741,5.716,92.9,0.818,0.092,21.59,107.2511,17.84,18.82,66.9,0,110.8,13.11,18.65,54.9
"2016-07-02 01:26:30",1772742,5.601,94.2,1.237,0.095,21.61,107.2563,17.85,18.82,66.74,0,110.8,13.11,18.67,56.2
"2016-07-02 01:27:00",1772743,5.359,92.6,1.348,0.132,21.7,107.2533,17.84,18.83,66.62,0,110.8,13.11,18.66,54.6
"2016-07-02 01:27:30",1772744,5.394,95.4,1.097,0.125,21.67,107.2553,17.85,18.83,66.37,0,110.8,13.11,18.66,57.4
"2016-07-02 01:28:00",1772745,5.286,95.2,1.091,0.171,21.76,107.2648,17.87,18.84,66.2,0,110.8,13.11,18.69,57.2
"2016-07-02 01:28:30",1772746,5.428,95.9,0.96,0.087,21.76,107.2806,17.91,18.83,66.05,0,110.8,13.11,18.73,57.9
"2016-07-02 01:29:00",1772747,5.444,94.5,1.191,0.121,21.82,107.2897,17.94,18.84,65.86,0,110.8,13.11,18.75,56.5
"2016-07-02 01:29:30",1772748,5.732,93.6,1.233,0.182,21.78,107.2946,17.95,18.87,65.85,0,110.8,13.11,18.77,55.6
"2016-07-02 01:30:00",1772749,5.893,94.8,0.741,0.184,21.8,107.2955,17.95,18.86,65.87,0,110.8,13.11,18.77,56.8
"2016-07-02 01:30:30",1772750,5.901,95.9,1.84,0.133,21.85,107.2967,17.96,18.87,65.82,0,110.8,13.11,18.77,57.9
"2016-07-02 01:31:00",1772751,5.986,98.3,0.5,0.047,21.73,107.297,17.96,18.89,65.81,0,110.8,13.12,18.77,60.3
"2016-07-02 01:31:30",1772752,5.801,100,0.586,0.129,21.84,107.2973,17.96,18.89,65.79,0,110.8,13.12,18.77,62.0
"2016-07-02 01:32:00",1772753,5.769,102,1.06,0.05,21.92,107.3038,17.97,18.9,65.73,0,110.8,13.12,18.79,64.0
"2016-07-02 01:32:30",1772754,5.515,103.3,1.149,0.105,21.84,107.3215,18.02,18.92,65.69,0,110.8,13.12,18.83,65.3
"2016-07-02 01:33:00",1772755,5.757,104.6,0.471,0.07,21.87,107.3299,18.04,18.92,65.7,0,110.8,13.12,18.86,66.6
"2016-07-02 01:33:30",1772756,5.573,102.9,1.337,0.143,21.85,107.3311,18.04,18.94,65.67,0,110.8,13.12,18.86,64.9
"2016-07-02 01:34:00",1772757,5.729,104.5,0.784,0.063,21.95,107.3311,18.04,18.95,65.68,0,110.8,13.12,18.86,66.5
"2016-07-02 01:34:30",1772758,5.392,105.7,0.567,0.099,21.73,107.3311,18.04,18.97,65.67,0,110.8,13.12,18.86,67.7
"2016-07-02 01:35:00",1772759,5.103,105.6,1.13,0.205,21.86,107.3311,18.04,18.98,65.62,0,110.8,13.12,18.86,67.6
"2016-07-02 01:35:30",1772760,4.984,104.5,1.483,0.17,21.94,107.3314,18.04,18.97,65.4,0,110.8,13.12,18.86,66.5
"2016-07-02 01:36:00",1772761,4.901,102.9,1.353,0.132,21.96,107.3336,18.05,19,65.29,0,110.8,13.12,18.87,64.9
"2016-07-02 01:36:30",1772762,4.81,101.9,0.922,0.053,21.94,107.3421,18.07,18.98,65.19,0,110.8,13.12,18.89,63.9
"2016-07-02 01:37:00",1772763,4.964,100.8,0.945,0.098,21.9,107.3601,18.12,19.01,65.23,0,110.8,13.12,18.93,62.8
"2016-07-02 01:37:30",1772764,4.741,100.5,0.584,0.154,21.92,107.3649,18.13,19.03,65.18,0,110.8,13.12,18.95,62.5
"2016-07-02 01:38:00",1772765,4.511,99.5,0.661,0.036,21.9,107.3649,18.13,19.03,64.94,0,110.8,13.12,18.95,61.5
"2016-07-02 01:38:30",1772766,4.559,100.9,0.789,0.11,21.9,107.3649,18.13,19.05,64.85,0,110.8,13.12,18.95,62.9
"2016-07-02 01:39:00",1772767,4.44,101.5,0.92,0.068,21.96,107.3649,18.13,19.05,64.77,0,110.8,13.11,18.95,63.5
"2016-07-02 01:39:30",1772768,4.285,100.4,0.551,0.054,22.07,107.3649,18.13,19.06,64.65,0,110.8,13.11,18.95,62.4
"2016-07-02 01:40:00",1772769,4.361,98.5,1.01,0.044,22.08,107.3649,18.13,19.08,64.52,0,110.8,13.11,18.95,60.5
"2016-07-02 01:40:30",1772770,4.294,99.6,0.817,0.079,22.06,107.3719,18.15,19.09,64.41,0,110.8,13.11,18.96,61.6
"2016-07-02 01:41:00",1772771,4.103,99.2,1.108,0.107,22.06,107.3874,18.19,19.09,64.31,0,110.8,13.11,19.00,61.2
"2016-07-02 01:41:30",1772772,3.885,96.8,0.866,0.104,22.05,107.3964,18.21,19.11,64.07,0,110.8,13.11,19.03,58.8
"2016-07-02 01:42:00",1772773,3.82,96.8,1.056,0.076,22.05,107.3987,18.22,19.12,63.99,0,110.8,13.11,19.03,58.8
"2016-07-02 01:42:30",1772774,3.872,95.8,1.107,0.104,22.06,107.3987,18.22,19.15,63.94,0,110.8,13.11,19.03,57.8
"2016-07-02 01:43:00",1772775,3.855,94,0.853,0.081,22.13,107.3987,18.22,19.15,63.91,0,110.8,13.11,19.03,56.0
"2016-07-02 01:43:30",1772776,3.791,93.4,1.396,0.126,22.18,107.3989,18.22,19.16,64.02,0,110.8,13.11,19.03,55.4
"2016-07-02 01:44:00",1772777,3.954,92.6,0.916,0.088,22.1,107.4012,18.22,19.17,64.16,0,110.8,13.11,19.04,54.6
"2016-07-02 01:44:30",1772778,3.971,93.5,0.989,0.081,22.01,107.4195,18.27,19.19,64.26,0,110.8,13.12,19.09,55.5
"2016-07-02 01:45:00",1772779,3.988,91.7,1.927,0.075,22.01,107.4229,18.28,19.19,64.3,0,110.8,13.12,19.10,53.7
"2016-07-02 01:45:30",1772780,3.865,92.6,1.507,0.153,22.07,107.4293,18.3,19.21,64.26,0,110.8,13.12,19.11,54.6
"2016-07-02 01:46:00",1772781,4.08,95.3,1.79,0.08,21.99,107.4324,18.3,19.24,64.17,0,110.8,13.12,19.12,57.3
"2016-07-02 01:46:30",1772782,4.002,95.3,0.926,0.038,21.93,107.4324,18.3,19.23,64.14,0,110.8,13.12,19.12,57.3
"2016-07-02 01:47:00",1772783,3.924,94.8,1.061,0.085,21.99,107.4324,18.3,19.25,64.1,0,110.8,13.12,19.12,56.8
"2016-07-02 01:47:30",1772784,3.822,92.5,0.603,0.071,22.14,107.4324,18.3,19.25,64.09,0,110.8,13.12,19.12,54.5
"2016-07-02 01:48:00",1772785,4.001,95,1.568,0.113,22.06,107.4324,18.3,19.26,64.08,0,110.8,13.12,19.12,57.0